Weather History for Huron, SD

Change the Weather History Date:

Saturday, October 26, 2013

  Actual Average Record
Temperature  
Mean Temperature 40 °F 44 °F  
Max Temperature 49 °F 56 °F 86 °F (1927)
Min Temperature 30 °F 32 °F 2 °F (1919)
Degree Days  
Heating Degree Days 25 21  
Month to date heating degree days 430 420  
Since 1 July heating degree days 505 616  
Cooling Degree Days 0 0  
Month to date cooling degree days 0 0  
Year to date cooling degree days 848 738  
Moisture  
Dew Point 27 °F    
Average Humidity 59    
Maximum Humidity 78    
Minimum Humidity 39    
Precipitation  
Precipitation 0.00 in 0.04 in 1.99 in (1941)
Month to date precipitation 5.24 1.56  
Year to date precipitation 23.85 21.28  
Snow  
Snow 0.00 in 0.10 in 2.40 in (1976)
Month to date snowfall 0.6 0.7  
Since 1 July snowfall 0.6 0.7  
Since 1 September snowfall 0.6 0.7  
Snow Depth 0.00 in    
Sea Level Pressure  
Sea Level Pressure 30.18 in    
Wind  
Wind Speed 9 mph (NW)    
Max Wind Speed 18 mph    
Max Gust Speed 23 mph    
Visibility 10 miles    
Events      
T = Trace of Precipitation, MM = Missing Value Source: NWS Daily Summary

Daily Weather History Graph

Daily Weather History Graph

Search for Another Location

Airport:

Trip Planner

Search our weather history database for the weather conditions in past years. The results will help you decide how hot, cold, wet, or windy it might be!

Date:

Astronomy

Oct. 26, 2013 Rise Set
Actual Time 8:02 AM CDT 6:30 PM CDT
Civil Twilight 7:32 AM CDT 7:00 PM CDT
Nautical Twilight 6:58 AM CDT 7:34 PM CDT
Astronomical Twilight 6:24 AM CDT 8:07 PM CDT
Moon No Moon Rise 2:21 PM CDT (10/26)
Length of Visible Light 11h 27m
Length of Day
10h 27m
Waning Gibbous, 53% of the Moon is Illuminated
Oct 26
Waning Gibbous
Oct 26
Last Quarter
Nov 3
New
Nov 9
First Quarter
Nov 17
Full

Hourly Weather History & Observations

Time (CDT) Temp. Windchill Dew Point Humidity Pressure Visibility Wind Dir Wind Speed Gust Speed Precip Events Conditions
12:55 AM 45.0 °F 38.5 °F 30.9 °F 58% 30.05 in 10.0 mi NNW 13.8 mph - N/A   Clear
1:55 AM 43.0 °F 35.4 °F 30.0 °F 60% 30.07 in 10.0 mi NNW 16.1 mph - N/A   Clear
2:55 AM 39.0 °F 31.0 °F 30.0 °F 70% 30.10 in 10.0 mi NW 13.8 mph - N/A   Clear
3:55 AM 37.9 °F 29.6 °F 30.0 °F 73% 30.12 in 10.0 mi NW 13.8 mph - N/A   Clear
4:55 AM 36.0 °F 27.5 °F 28.9 °F 76% 30.15 in 10.0 mi NW 12.7 mph - N/A   Clear
5:55 AM 35.1 °F 26.4 °F 27.0 °F 72% 30.19 in 10.0 mi NNW 12.7 mph - N/A   Clear
6:55 AM 32.0 °F 24.2 °F 27.0 °F 82% 30.21 in 10.0 mi NW 9.2 mph - N/A   Clear
7:55 AM 30.0 °F 21.7 °F 25.0 °F 82% 30.24 in 10.0 mi NW 9.2 mph - N/A   Clear
8:55 AM 33.1 °F 24.9 °F 26.1 °F 75% 30.26 in 10.0 mi NW 10.4 mph - N/A   Clear
9:55 AM 37.0 °F 27.7 °F 27.0 °F 67% 30.27 in 10.0 mi NNW 16.1 mph - N/A   Clear
10:55 AM 42.1 °F 34.5 °F 26.1 °F 53% 30.29 in 10.0 mi NNW 15.0 mph - N/A   Clear
11:55 AM 44.1 °F 37.1 °F 25.0 °F 47% 30.28 in 10.0 mi North 15.0 mph - N/A   Clear
12:55 PM 45.0 °F 39.3 °F 25.0 °F 46% 30.27 in 10.0 mi NW 11.5 mph 23.0 mph N/A   Scattered Clouds
1:55 PM 46.0 °F 41.4 °F 25.0 °F 44% 30.25 in 10.0 mi NW 9.2 mph 18.4 mph N/A   Scattered Clouds
2:55 PM 46.9 °F - 25.0 °F 42% 30.23 in 10.0 mi NW 11.5 mph 17.3 mph N/A   Clear
3:55 PM 48.0 °F - 25.0 °F 41% 30.22 in 10.0 mi NW 11.5 mph 17.3 mph N/A   Clear
4:55 PM 48.0 °F - 25.0 °F 41% 30.21 in 10.0 mi NW 10.4 mph - N/A   Clear
5:55 PM 45.0 °F 42.6 °F 27.0 °F 49% 30.18 in 10.0 mi NW 4.6 mph - N/A   Clear
6:55 PM 39.0 °F - 26.1 °F 60% 30.17 in 9.0 mi Calm Calm - N/A   Clear
7:55 PM 35.1 °F - 28.0 °F 76% 30.16 in 10.0 mi Calm Calm - N/A   Clear
8:55 PM 32.0 °F - 27.0 °F 82% 30.14 in 10.0 mi Calm Calm - N/A   Clear
9:55 PM 34.0 °F 29.8 °F 27.0 °F 75% 30.12 in 10.0 mi SSW 4.6 mph - N/A   Clear
10:55 PM 34.0 °F 29.8 °F 26.1 °F 73% 30.09 in 10.0 mi South 4.6 mph - N/A   Clear
11:55 PM 34.0 °F 28.8 °F 27.0 °F 75% 30.06 in 10.0 mi South 5.8 mph - N/A   Clear